Miscellaneous Local Product
Issued by NWS North Platte, NE

Home | Current Version | Previous Version | Graphics & Text | Print | Product List | Glossary On
Versions: 1 2 3 4 5 6 7 8 9 10 11 12 13 14 15 16 17 18 19 20 21 22 23 24 25 26 27 28 29 30 31 32 33 34 35 36 37 38 39 40 41 42 43 44 45 46 47 48 49 50
000
AXUS43 KLBF 260810
MISLBF


WESTERN AND NORTH CENTRAL NEBRASKA HOURLY WEATHER ROUNDUP
NATIONAL WEATHER SERVICE NORTH PLATTE NE
300 AM CDT MON SEP 26 2016

NOTE: "FAIR" INDICATES FEW OR NO CLOUDS BELOW 12,000 FEET WITH NO
SIGNIFICANT WEATHER AND/OR OBSTRUCTIONS TO VISIBILITY.

NOTE: STATIONS NOT REPORTING VARIABLES SUCH AS SKY/WEATHER OR
PRESSURE ARE PROVIDED BY RAWS AND APRS NETWORKS AND ARE NOT UNDER
NATIONAL WEATHER SERVICE QUALITY CONTROL.

...OBSERVATIONS IN AND NEAR THE EASTERN PANHANDLE OF NEBRASKA...

CITY           SKY/WX    TMP DP  RH WIND       PRES   REMARKS
PINE RIDGE     CLEAR     33  28  81 CALM      30.34S
CHADRON        CLEAR     39  34  82 SW5       30.35F
ALLIANCE       CLEAR     32  30  92 W6        30.37S WCI  26
SIDNEY         CLEAR     37  33  85 NW5       30.40F WCI  33
CRESCENT LAKE    N/A     42  31  64 W5          N/A
$$

...OBSERVATIONS IN NORTHERN NEBRASKA AND FAR SOUTHERN SOUTH DAKOTA...

CITY           SKY/WX    TMP DP  RH WIND       PRES   REMARKS
WINNER         FAIR      47  34  60 SW7       30.26S
VALENTINE      CLEAR     38  31  76 W7        30.31F WCI  33
THEDFORD       CLEAR     38  32  78 W6        30.35R WCI  34
AINSWORTH      CLEAR     41  34  75 W6        30.30F
O`NEILL        CLEAR     43  33  66 W8        30.26F
ORD            CLEAR     36  31  82 NW6       30.29S WCI  31
BROKEN BOW     CLEAR     33  30  88 CALM      30.32S
VALENTINE NWR    N/A     42  33  69 CALM        N/A
BUTTE            N/A     44  33  66 SW3         N/A
HALSEY           N/A     42  29  59 CALM        N/A
EWING            N/A     42  36  78 CALM        N/A
$$

...OBSERVATIONS IN SOUTHWEST NEBRASKA AND FAR NORTHEAST COLORADO...

CITY           SKY/WX    TMP DP  RH WIND       PRES   REMARKS
WRAY           FAIR      41  32  70 W6        30.41S
HOLYOKE        FAIR      41  36  81 W7        30.40R
IMPERIAL       CLEAR     44  34  67 NW3       30.39S
OGALLALA       CLEAR     37  34  87 W3        30.39R
NORTH PLATTE   CLEAR     37  32  82 NW5       30.37R WCI  33
MCCOOK         CLEAR     38  31  76 SW5       30.37S WCI  34
LEXINGTON      CLEAR     37  32  81 NW5       30.34S WCI  33
STAPLETON        N/A     41  32  69 CALM        N/A
GOTHENBURG       N/A     42  28  58 W3          N/A
CALLAWAY         N/A     39  34  81 N6          N/A  WCI  35
$$

...OBSERVATIONS IN CENTRAL LINCOLN COUNTY AREA...

CITY           SKY/WX    TMP DP  RH WIND       PRES   REMARKS
N.P. AIRPORT   CLEAR     37  32  82 NW5       30.37R WCI  33
N.P. DOWNTOWN    N/A     41  32  69 CALM        N/A
N.P. SOUTHEAST   N/A     43  31  61 CALM        N/A
N.P. HILLCREST   N/A     41  30  64 NW6         N/A
$$

...SOME OBSERVATIONS FROM AROUND THE REGION...

CITY           SKY/WX    TMP DP  RH WIND       PRES   REMARKS
DENVER         CLEAR     48  29  47 SW10      30.44S
LARAMIE        CLOUDY    35  31  85 SW7       30.48F WCI  29
CHEYENNE       CLEAR     45  33  63 W12       30.45F
SCOTTSBLUFF    CLEAR     39  35  86 CALM      30.38F
RAPID CITY     CLEAR     43  34  70 W6        30.31F
BISMARCK       CLEAR     44  34  67 W8        30.17S
PIERRE         PTCLDY    46  35  65 W6        30.21F
SIOUX FALLS    CLEAR     46  37  71 W8        30.16S
OMAHA          CLEAR     53  38  56 W7        30.22S
GRAND ISLAND   CLEAR     42  36  79 W6        30.30S
KANSAS CITY    CLEAR     54  50  86 NW7       30.23R
WICHITA        PTCLDY    53  47  79 NW8       30.28R
OKLAHOMA CITY  CLOUDY    64  55  72 N10       30.23S
DALLAS         CLOUDY    70  63  78 N16       30.11R
AMARILLO       LGT RAIN  50  42  74 NW3       30.38R
DODGE CITY     CLEAR     43  34  70 NW7       30.36R
HAYS           CLEAR     45  28  53 NW7       30.34S
GOODLAND       CLEAR     43  35  73 W6        30.40S
$$




USA.gov is the U.S. government's official web portal to all federal, state and local government web resources and services.